Theta_e
284 284 284 283 283 283 284 284 284 284 284 284 285 285 285 286 286 286 286 286 286 287 287 287 287 288 288 288 289 288 287 287 284 288 290 292 292 292 293 295 297 297 299
284 284 283 283 283 283 283 283 283 283 284 284 284 284 285 285 285 284 284 285 285 285 286 286 286 287 287 288 288 287 288 289 286 284 287 288 289 291 293 292 294 295 297
283 283 282 282 282 282 282 283 283 283 283 283 284 284 284 284 283 283 283 283 285 285 286 286 286 285 284 286 286 285 286 287 287 286 285 288 287 290 290 289 290 292 294
283 282 281 281 282 282 282 282 282 283 282 282 283 283 283 282 282 282 283 284 285 286 285 284 284 284 283 283 283 283 283 284 284 284 284 285 286 288 289 288 288 291 290
281 281 281 282 282 282 282 282 282 282 282 283 282 282 282 282 282 282 284 285 286 284 284 283 283 283 283 283 283 284 283 283 283 283 282 284 284 285 285 287 287 288 288
279 280 281 280 280 280 281 281 281 281 282 282 282 281 280 281 282 284 285 285 284 283 282 281 281 281 282 284 284 285 285 283 282 281 282 281 283 285 286 285 286 287 285
277 279 279 278 278 277 278 279 278 280 281 281 282 282 280 279 281 283 284 284 284 282 280 279 279 281 282 282 283 285 284 283 284 283 282 283 283 286 286 285 285 286 287
274 275 275 275 276 275 276 277 276 279 279 281 282 282 277 277 281 283 283 284 283 282 279 278 278 280 281 282 283 281 280 280 281 282 283 283 283 285 285 285 284 284 285
271 272 272 273 274 274 275 276 276 279 281 282 282 282 279 276 280 281 283 283 282 281 281 279 278 280 281 284 281 278 278 279 282 282 283 284 285 286 287 285 282 282 284
271 272 270 271 273 274 276 276 278 281 281 281 281 282 280 274 278 280 283 281 278 279 279 279 279 280 283 283 281 278 277 278 278 279 280 280 281 281 282 283 283 283 284
276 274 272 271 273 274 274 275 279 280 280 280 280 280 273 272 274 280 282 280 279 278 277 277 277 280 282 282 281 279 278 279 277 278 278 279 279 280 279 279 282 286 285
277 275 273 272 274 275 276 278 278 276 278 279 278 275 274 274 275 279 282 282 281 277 275 275 276 280 280 279 279 280 278 276 276 277 277 276 277 278 279 278 278 279 280
277 275 274 272 273 275 275 275 275 277 278 277 275 273 274 275 275 279 281 281 279 276 275 277 278 277 277 275 277 277 273 273 273 275 275 275 276 278 279 279 279 278 277
280 277 274 272 272 273 276 276 276 278 277 275 273 274 273 273 274 275 276 276 275 274 273 271 274 275 275 273 272 272 271 271 272 272 273 275 277 276 277 278 278 278 276
281 278 274 274 273 273 274 275 276 278 277 275 275 275 273 272 275 278 279 276 274 275 267 269 269 269 270 270 270 270 270 270 270 271 272 273 275 276 275 277 277 276 274
279 277 275 274 273 274 274 273 280 279 280 281 281 277 275 278 280 281 280 280 279 275 267 267 267 267 267 267 267 267 268 267 267 270 271 272 273 274 275 275 274 274 273
279 278 276 275 274 273 273 274 273 277 282 282 283 283 281 279 281 281 279 278 277 272 266 264 265 265 265 266 265 265 265 265 264 267 268 269 273 273 273 273 273 272 270
279 279 277 276 275 275 274 274 274 274 275 277 282 282 283 282 282 281 280 273 267 266 264 265 264 263 264 263 264 264 264 265 265 266 267 267 268 269 270 269 270 269 269
281 280 278 276 276 276 275 274 274 273 274 270 270 279 281 283 282 281 281 268 265 264 262 263 262 262 262 261 261 261 262 263 263 264 264 265 266 268 266 266 267 267 268
280 279 278 277 275 273 273 273 273 273 273 273 275 277 270 280 278 270 267 265 264 263 262 264 261 260 260 260 260 261 262 262 263 263 262 263 264 265 264 265 266 266 265
280 278 278 277 275 274 274 274 274 273 273 273 275 274 275 277 274 271 267 264 265 264 262 262 260 259 258 258 260 262 262 261 259 260 261 261 263 263 263 264 264 263 264
278 277 276 276 275 274 275 275 274 274 273 272 271 272 280 274 271 270 269 267 264 264 263 262 260 260 259 260 260 262 262 261 260 260 261 260 262 262 262 262 262 262 263
275 276 274 274 274 274 274 274 274 274 273 272 271 271 275 276 271 269 269 267 264 261 260 260 260 257 256 256 258 261 262 262 261 260 261 261 261 261 262 261 261 260 261
272 274 272 273 272 272 273 273 273 273 273 272 270 270 273 276 271 270 268 266 263 261 260 260 260 260 257 256 256 256 257 257 257 259 260 261 259 259 259 258 259 258 259
270 268 270 271 271 271 272 272 272 272 272 272 271 270 272 274 271 270 267 265 263 261 259 259 259 260 259 257 256 256 257 257 256 256 258 259 258 258 257 257 257 257 256
269 270 269 268 269 270 272 272 272 272 272 272 271 271 271 273 273 271 267 264 263 262 261 259 259 260 259 259 258 258 258 259 257 258 259 259 258 256 257 256 255 257 256
Wind_Speed
7 7 7 6 6 6 7 6 5 4 5 6 6 6 7 7 7 8 9 10 11 11 10 10 12 12 9 9 8 9 10 11 15 13 10 10 12 11 13 11 12 12 10
9 9 10 8 8 8 8 8 6 6 6 6 6 6 7 7 7 8 9 10 11 11 12 11 12 9 12 11 9 12 11 10 12 22 12 10 11 9 15 15 12 10 11
7 9 8 10 10 11 10 8 7 7 7 6 6 6 6 6 7 8 9 9 10 11 11 10 8 11 13 9 11 11 11 10 11 13 13 9 8 9 10 8 7 9 8
9 9 11 12 13 11 9 9 9 8 7 6 6 6 6 6 7 8 8 9 9 8 10 10 11 11 12 12 11 13 12 11 12 13 12 11 9 11 9 10 9 9 9
10 11 15 13 11 11 10 9 9 8 7 6 6 6 6 6 5 7 9 9 7 9 9 9 9 11 17 17 10 12 13 11 11 11 12 11 9 6 8 7 8 9 5
10 14 13 11 11 11 10 10 9 8 7 6 6 6 5 5 10 13 10 6 7 7 9 10 10 12 13 18 21 22 19 14 14 12 12 12 12 8 8 8 6 5 3
12 14 12 11 12 11 10 10 9 9 7 7 5 5 6 5 11 12 12 7 6 7 8 9 8 7 10 12 17 20 17 19 19 14 14 12 12 10 6 8 7 6 5
13 12 10 10 11 9 10 10 7 7 7 6 6 6 4 5 11 11 12 8 6 9 8 7 8 10 10 13 12 11 11 11 11 8 10 11 10 9 9 9 9 8 5
11 9 8 9 10 11 12 11 7 7 6 8 5 8 6 6 10 10 10 7 6 7 8 7 7 8 15 20 11 10 12 10 9 15 15 16 16 17 13 6 7 6 5
9 8 6 6 8 11 11 10 6 6 9 5 7 7 6 6 10 9 9 4 5 5 6 6 7 9 19 18 10 9 11 10 9 8 6 6 7 6 9 7 7 7 3
8 6 7 10 12 10 8 6 9 9 7 8 8 7 5 5 7 9 10 4 4 4 5 6 5 14 17 16 14 8 9 10 10 6 5 5 5 5 5 5 5 5 3
7 6 7 8 8 7 10 9 9 8 8 8 8 7 5 5 9 9 10 9 7 3 4 5 6 14 13 13 10 14 13 10 5 4 5 6 6 7 7 7 9 10 10
5 7 7 7 8 8 10 9 7 9 8 8 7 5 4 3 4 8 8 8 6 2 3 6 10 10 12 9 12 13 9 6 6 6 6 6 6 6 7 7 7 12 16
9 8 6 8 8 7 7 8 8 9 9 8 6 5 4 3 4 3 3 3 3 1 2 4 5 8 9 8 5 8 6 6 6 6 5 5 5 7 7 7 5 7 12
10 6 7 6 8 8 9 9 9 9 10 8 6 5 4 4 5 7 4 3 2 1 3 3 4 4 6 6 6 7 7 7 7 6 6 6 7 7 8 6 8 8 11
9 6 5 6 6 7 7 6 15 12 18 15 11 8 4 6 8 7 3 3 4 6 4 3 3 4 5 5 6 6 7 8 6 6 6 6 7 7 8 8 8 9 10
10 6 5 7 7 8 7 8 8 7 15 15 15 14 11 9 12 9 7 4 4 4 3 2 2 2 3 4 4 5 4 5 5 5 6 6 6 7 8 8 8 8 9
10 11 7 7 8 8 9 8 6 7 9 8 13 12 14 12 13 11 9 7 1 4 2 2 2 1 2 3 4 3 4 4 5 6 6 6 6 6 7 8 8 8 8
9 7 7 7 7 7 7 7 6 7 7 4 2 7 10 15 13 12 12 3 3 2 3 3 2 2 2 2 2 3 4 5 4 5 5 6 5 6 7 7 8 9 10
8 11 7 6 5 6 6 7 6 7 7 7 7 8 4 8 9 3 2 3 3 3 3 4 3 2 2 3 3 3 4 4 5 5 5 5 5 6 6 7 7 9 8
6 6 9 5 7 7 7 8 7 7 7 7 7 7 14 10 7 5 4 4 4 4 4 4 4 3 2 2 3 4 5 5 4 4 4 5 4 6 6 7 7 7 7
7 7 7 8 6 7 8 8 8 8 7 7 4 6 20 6 6 6 6 5 5 3 5 6 4 4 4 4 4 4 4 5 5 5 6 5 5 6 6 6 6 6 6
6 7 8 7 7 8 7 8 8 8 7 7 7 7 9 9 7 7 6 5 5 5 4 5 5 4 3 3 2 3 5 4 4 4 6 6 5 6 5 7 6 6 5
7 8 8 7 6 7 7 8 7 8 8 7 7 7 8 9 8 9 7 6 6 6 5 6 5 7 6 4 3 2 3 4 4 4 5 6 6 5 6 6 5 6 7
3 5 6 7 7 7 6 6 7 7 7 7 7 7 7 8 7 7 7 7 6 7 7 7 6 8 9 9 7 7 7 7 5 5 4 6 8 7 5 5 4 6 5
3 4 4 4 4 5 6 7 8 8 8 7 7 7 8 8 7 8 8 9 8 7 8 7 8 10 10 8 8 9 9 10 8 7 6 7 7 6 5 7 7 6 7
Wind_Direction
230 228 225 217 214 214 225 223 223 233 245 256 266 278 283 286 290 290 288 287 282 283 280 277 278 278 275 274 272 271 270 267 274 283 281 281 281 280 280 275 278 278 282
235 217 211 205 203 207 224 222 212 222 236 248 259 268 274 277 288 288 288 286 285 283 282 277 275 276 274 274 269 266 265 268 274 284 286 285 277 282 280 279 277 280 280
225 233 227 211 203 206 212 214 209 213 229 242 251 259 269 279 286 282 274 274 273 281 282 281 290 293 285 286 288 286 284 282 276 277 286 280 280 273 275 267 261 273 271
245 224 225 216 209 204 202 203 206 206 217 230 241 248 256 273 279 277 275 282 284 290 293 289 292 293 292 290 285 284 281 276 276 275 279 278 269 273 273 281 286 279 274
250 238 230 220 202 190 193 198 202 204 211 221 235 241 254 267 271 265 284 280 283 294 295 295 292 288 279 276 280 290 291 283 279 277 279 277 273 274 275 288 277 278 268
249 249 241 211 193 194 190 191 195 201 203 212 221 231 258 269 278 281 286 295 279 299 302 297 290 284 279 292 295 293 288 290 287 284 278 273 280 271 269 267 285 276 282
262 261 236 213 202 190 185 188 196 196 194 200 214 221 259 269 282 291 293 286 275 294 296 292 293 296 290 288 289 295 301 294 288 286 277 272 275 272 268 282 286 290 269
274 254 219 202 199 181 186 197 195 191 199 200 217 236 253 270 279 294 290 287 288 294 292 290 287 293 295 303 315 310 307 294 289 289 278 277 271 270 264 267 275 279 262
280 259 233 208 201 181 194 198 191 190 197 215 215 238 238 263 284 287 288 286 281 290 291 275 282 302 308 327 324 312 307 304 298 301 295 292 289 281 270 271 249 249 246
266 240 204 197 208 205 195 192 185 190 216 206 231 238 236 258 277 284 281 275 279 291 284 280 312 326 326 335 328 322 315 319 320 322 320 322 320 312 310 264 251 235 210
255 222 206 200 206 207 184 173 184 200 204 215 231 234 246 239 263 273 277 265 273 297 299 322 322 329 333 341 345 328 328 329 320 318 326 349 1 358 7 351 337 195 164
244 223 221 208 206 200 191 187 191 192 203 220 229 242 238 238 232 263 271 276 276 286 306 315 311 338 346 354 350 351 359 349 325 335 8 9 12 11 12 25 35 61 55
260 258 227 201 197 196 191 182 180 193 205 215 219 226 232 218 235 255 272 275 280 267 282 330 348 355 10 9 359 8 4 357 348 16 17 10 7 357 18 34 45 65 62
253 246 219 202 193 190 198 192 185 194 202 208 212 219 214 212 240 232 236 269 285 10 46 11 6 23 30 15 357 8 13 8 2 13 10 359 9 22 31 23 39 67 72
257 238 221 204 193 192 208 201 195 202 190 188 205 192 183 209 234 205 210 207 236 226 111 26 14 5 16 17 13 11 14 13 23 12 19 24 34 44 43 28 52 67 79
237 235 210 204 190 196 200 209 218 209 208 218 208 192 196 189 191 190 173 238 202 180 60 65 27 6 27 21 17 10 21 13 16 18 33 32 40 48 57 52 56 59 66
230 220 206 204 192 192 190 196 199 227 215 217 217 213 196 188 198 187 150 96 173 103 92 89 91 34 8 7 36 33 28 4 335 36 42 37 44 52 57 58 56 59 57
222 219 205 203 200 194 191 192 183 176 194 197 214 203 202 196 189 187 163 115 24 44 99 126 126 112 66 32 16 40 33 33 36 34 47 45 48 59 62 56 56 69 73
222 218 199 191 191 197 179 178 184 180 191 155 132 208 194 196 192 186 180 137 152 180 144 147 171 154 129 110 67 43 47 55 43 51 44 48 45 70 69 65 71 66 80
220 225 200 180 174 183 175 175 177 188 182 179 182 188 162 183 194 180 147 155 163 187 173 150 171 171 144 126 120 112 90 61 58 66 67 64 57 66 76 73 70 84 74
215 208 204 188 194 189 185 188 180 183 188 187 192 177 173 184 187 183 178 179 184 162 177 166 163 165 166 136 121 107 98 100 93 86 75 73 68 83 74 78 82 79 88
211 198 196 205 193 187 192 184 178 181 189 184 172 178 193 186 171 183 187 184 183 190 164 161 166 176 170 168 155 122 102 101 111 110 103 90 85 85 82 78 76 74 77
206 191 191 191 190 183 182 179 177 181 189 185 164 171 192 192 193 184 191 176 160 167 160 152 154 166 180 182 176 154 137 146 137 133 119 113 108 105 100 98 102 92 84
203 195 181 183 180 184 187 182 176 178 182 180 171 181 191 193 185 189 175 162 158 155 163 159 170 160 158 163 167 160 135 128 136 126 115 112 108 101 94 87 90 96 98
197 179 175 175 182 189 176 175 173 177 185 184 186 187 188 195 172 179 163 158 160 157 168 163 161 161 165 164 164 155 152 133 134 127 106 101 107 102 96 95 104 97 94
258 202 181 157 168 173 184 181 185 179 186 187 190 188 186 192 183 171 165 158 164 167 161 164 170 166 162 162 157 148 143 142 138 134 120 120 119 114 111 111 107 107 110